Wind_Speed
14 11 7 4 3 4 9 10 12 16 18 21 24 25 26 27 28 27 26 23 20 17 14 12 11 11 11 10 8 7 4 2 1 7 7 5 5 5 3 3 3 6 6 6 5
19 16 12 9 6 4 4 7 9 11 13 16 18 20 21 22 24 25 25 24 23 20 17 14 12 13 14 13 12 9 7 7 5 5 7 6 3 2 3 6 9 10 10 10 9
24 21 17 14 11 8 4 4 6 8 10 11 13 14 16 18 20 22 22 23 23 23 20 17 16 15 16 16 15 15 10 7 8 7 7 7 6 4 5 7 9 11 14 15 13
29 26 23 20 16 12 9 7 5 6 7 9 9 10 10 12 14 17 18 20 22 23 24 21 19 19 18 17 18 20 18 12 9 10 9 9 9 8 6 7 7 7 9 10 13
34 32 29 25 21 18 15 11 9 6 6 7 7 7 7 7 8 10 12 16 18 20 22 24 22 21 21 19 19 20 22 19 13 9 10 10 11 10 10 9 9 9 9 9 10
39 36 34 31 27 24 21 17 14 11 9 7 5 5 5 4 3 4 7 9 13 16 19 22 24 21 22 22 22 23 23 20 17 13 10 10 10 13 13 12 10 10 10 9 8
45 42 39 36 33 29 25 22 18 15 13 11 9 6 4 3 2 3 1 4 7 11 14 18 23 24 24 24 23 24 26 25 19 17 13 11 13 11 12 14 13 10 11 11 9
51 47 44 41 38 34 30 27 24 20 18 16 13 10 8 5 3 2 4 2 3 6 9 13 18 22 25 27 25 26 28 28 23 18 14 8 10 12 10 12 14 13 13 11 10
56 53 50 46 43 40 37 33 29 25 22 20 19 15 12 9 7 5 5 6 5 4 7 10 14 18 22 26 26 26 27 27 25 21 18 12 6 9 11 9 10 12 14 13 11
60 58 55 51 48 45 42 39 35 31 27 24 21 19 17 15 12 9 7 8 8 7 6 9 10 14 19 23 26 27 27 26 26 24 19 15 10 7 9 11 11 12 13 13 10
63 62 60 57 53 51 48 45 40 37 33 29 25 23 21 21 17 13 10 10 10 10 9 10 9 12 15 19 23 27 28 27 26 26 24 19 14 9 9 11 13 14 14 11 8
68 66 65 63 60 56 54 50 46 43 39 35 31 27 25 24 23 18 15 13 13 11 12 12 12 10 13 15 19 24 28 30 29 28 25 24 18 13 9 9 11 13 14 15 9
75 71 69 68 66 62 59 56 52 48 45 41 37 33 30 27 26 24 21 18 16 14 14 13 14 12 14 14 17 20 24 28 30 29 26 25 24 18 15 14 15 13 13 13 12
80 78 73 71 70 68 65 61 57 54 51 47 44 39 35 31 29 30 27 23 20 18 15 16 17 15 15 14 17 19 22 24 28 30 29 26 24 22 20 17 16 16 13 13 11
83 82 80 76 73 72 70 66 62 60 57 53 48 44 40 37 35 33 31 29 24 23 20 19 18 20 17 17 17 19 21 24 26 29 32 29 26 24 23 22 20 20 20 16 13
90 87 85 83 78 76 73 70 68 66 60 57 52 48 46 44 39 38 36 34 31 28 25 23 21 22 21 21 19 21 21 22 25 28 31 34 31 29 26 26 24 23 21 21 20
93 93 90 87 84 81 77 75 72 66 63 60 57 54 52 48 44 41 40 39 37 33 29 27 25 26 25 25 24 24 24 24 25 28 29 32 36 34 32 31 29 28 27 26 24
99 97 94 92 90 86 82 78 73 70 70 64 62 60 55 52 48 45 44 43 44 39 32 32 30 29 29 27 28 27 26 26 25 28 29 31 33 35 36 36 34 32 31 30 28
102 103 99 97 96 92 87 80 74 78 73 69 67 63 60 55 52 50 49 48 47 42 38 37 34 33 32 29 31 29 28 29 27 29 31 32 34 36 36 36 37 36 35 35 33
105 105 104 101 100 97 90 83 82 80 77 75 71 67 63 59 57 55 53 52 50 47 42 41 40 38 36 33 33 32 32 31 29 31 33 34 34 37 40 41 40 39 38 38 38
106 109 109 106 105 101 91 89 89 86 81 78 74 69 66 62 60 58 56 55 53 51 47 46 44 43 40 38 36 35 35 33 32 34 36 36 38 39 42 45 45 45 43 41 39
91 104 113 111 107 103 98 95 94 92 87 82 78 74 71 66 65 62 60 58 56 56 52 51 47 46 44 44 43 39 37 36 37 37 38 37 41 42 45 47 49 49 48 46 44
71 89 103 116 109 105 103 102 101 96 92 87 82 77 74 71 69 67 66 60 60 59 58 56 53 52 49 50 50 43 41 41 41 39 41 41 44 45 47 49 52 52 51 51 49
61 73 85 107 114 109 107 107 103 100 95 90 87 81 79 76 73 72 71 69 67 64 62 60 57 56 55 55 54 49 45 43 44 43 45 44 48 47 51 54 56 56 56 56 54
50 64 76 89 110 114 110 108 106 103 100 95 91 87 84 82 79 77 74 73 72 70 68 64 61 60 60 59 58 55 50 47 48 49 49 49 48 50 53 55 58 60 61 62 60
61 59 69 79 91 110 114 111 109 107 103 100 95 94 90 85 84 82 80 78 77 76 73 70 66 64 64 63 62 58 53 52 54 54 53 51 52 53 56 58 59 61 63 63 63
66 62 67 71 83 97 109 111 111 107 107 104 99 96 94 92 86 85 83 83 79 80 77 74 70 69 69 65 64 60 59 58 58 58 57 56 58 57 60 60 62 64 64 66 67
Wind_Direction
220 217 209 173 132 102 108 112 108 101 98 94 87 88 85 83 81 81 78 76 73 69 65 62 62 54 41 27 24 33 23 45 38 17 301 247 216 192 188 238 248 267 267 269 251
224 222 220 207 193 175 123 116 126 115 107 104 99 92 87 84 83 79 77 74 70 65 63 60 54 46 39 32 24 25 6 346 350 339 340 298 277 278 277 275 261 248 249 257 259
225 226 225 223 210 204 195 155 133 139 125 119 113 102 92 85 82 79 74 70 63 54 52 50 44 38 35 28 22 26 22 352 328 322 318 311 311 321 329 313 289 276 265 253 253
229 230 230 227 221 216 210 213 183 151 149 139 132 118 102 87 83 74 73 67 60 52 48 40 37 31 32 26 16 10 6 4 334 322 315 305 308 308 323 315 305 297 290 281 269
230 231 233 232 227 222 221 216 214 198 168 144 142 146 130 108 86 77 68 64 58 51 47 41 34 30 28 18 14 7 359 356 349 328 309 302 299 299 306 317 319 318 313 300 286
231 233 234 235 233 225 221 219 218 219 219 204 183 157 155 155 117 82 69 61 57 50 41 38 34 34 29 20 14 11 6 1 1 343 315 292 284 289 297 303 309 314 317 306 303
231 231 233 236 236 231 225 224 224 222 224 225 218 210 190 166 202 219 127 53 54 49 45 34 33 33 29 22 15 12 9 10 7 358 333 298 287 273 280 294 301 309 308 307 304
231 231 231 233 235 235 230 229 227 228 225 229 231 225 235 240 255 279 238 257 354 35 30 33 29 28 28 24 13 9 11 12 8 7 355 311 287 289 281 279 293 304 307 305 309
229 231 230 231 232 233 234 231 231 232 231 230 234 240 238 249 264 276 283 264 269 330 4 13 20 21 23 21 16 11 11 9 10 7 8 355 305 289 288 276 275 289 300 309 316
229 229 231 230 231 231 232 234 234 234 235 234 236 240 247 248 254 271 286 292 282 281 315 334 4 5 15 16 14 13 9 11 11 8 6 6 356 314 287 286 282 286 296 303 313
228 228 229 230 231 230 230 232 235 238 239 237 236 240 240 247 250 257 274 284 300 280 281 300 328 346 359 8 9 12 8 8 8 10 9 6 9 353 322 301 300 303 308 317 319
227 227 229 230 230 231 230 232 234 236 239 240 238 239 242 243 246 248 258 271 277 284 272 279 294 319 334 353 358 6 6 7 4 5 11 11 8 0 345 322 309 308 306 315 319
225 226 227 229 230 230 231 232 234 235 237 239 241 238 243 244 244 244 250 264 274 277 275 271 282 299 313 334 341 352 359 5 4 1 2 4 8 2 344 340 337 333 331 333 319
226 226 227 228 230 230 231 233 234 235 237 239 240 240 241 247 248 244 246 255 266 270 278 277 277 284 296 315 324 334 345 355 359 358 357 356 357 360 356 342 331 332 339 334 324
228 227 227 228 229 230 230 232 234 235 236 239 242 242 242 244 246 247 246 251 258 265 270 275 281 276 282 295 307 318 330 343 347 352 354 352 352 349 353 355 348 332 325 318 315
226 228 227 228 228 230 231 231 233 235 236 238 240 241 241 243 245 246 247 249 253 260 266 272 278 283 281 284 293 303 315 327 337 343 345 350 348 343 345 345 349 344 332 318 313
227 226 227 228 228 230 230 230 231 234 236 237 239 240 241 242 245 247 248 248 252 257 263 272 276 283 287 284 285 290 303 314 325 332 337 340 345 344 339 338 339 339 338 333 324
225 227 226 227 229 229 230 231 231 233 234 235 237 240 241 243 244 246 248 248 250 254 260 266 272 279 285 283 280 283 293 303 313 319 327 329 334 340 339 336 332 329 329 328 326
224 225 226 227 228 229 229 231 230 232 233 234 236 238 240 241 243 245 246 247 250 252 255 264 269 273 280 283 280 280 285 294 303 310 318 322 323 330 333 333 333 327 321 318 320
224 225 225 226 227 228 228 229 231 231 232 232 234 235 236 238 241 244 245 247 248 251 254 261 265 270 276 280 280 278 279 287 296 300 309 315 319 321 321 324 329 327 324 318 314
223 224 225 224 227 227 227 228 230 232 232 232 233 234 236 237 240 243 245 247 247 250 253 258 261 269 277 279 279 278 276 284 289 294 303 309 314 315 316 318 321 323 323 320 316
225 225 224 224 225 226 226 228 230 232 232 233 233 233 236 237 240 241 244 246 248 248 252 255 261 268 272 275 278 277 278 282 286 293 298 303 306 310 312 314 314 316 320 320 317
228 225 226 223 224 224 225 226 229 231 232 232 233 234 236 237 240 242 243 245 248 249 251 255 261 264 269 272 275 280 280 280 286 289 295 299 299 303 306 308 310 314 316 316 315
233 226 225 226 223 224 224 226 227 230 231 233 234 235 236 238 239 242 244 245 246 248 251 254 258 261 264 269 275 278 279 281 285 287 292 293 297 301 301 305 307 311 311 311 312
234 229 224 223 222 222 224 226 227 229 230 232 234 235 236 237 239 241 243 246 247 249 251 254 256 260 263 269 272 275 278 281 284 283 288 292 294 296 296 298 302 305 306 308 311
234 230 225 222 220 220 222 224 226 228 230 231 232 234 236 238 239 239 243 245 247 250 252 254 257 260 264 267 272 272 274 277 280 285 289 292 290 292 293 295 297 300 303 305 306
233 229 229 222 221 220 220 223 225 227 229 230 232 234 235 236 239 241 243 246 248 250 252 256 258 259 261 264 269 273 272 275 276 282 286 287 287 289 289 291 291 297 298 301 301
Height
11006 11007 11008 11010 11011 11011 11012 11012 11010 11010 11010 11009 11008 11007 11005 11005 11004 11003 11002 11002 11000 11000 10999 10998 10997 10996 10994 10993 10992 10992 10991 10990 10988 10988 10987 10985 10984 10982 10982 10982 10982 10981 10980 10980 10978
11003 11005 11007 11009 11010 11011 11012 11012 11012 11011 11011 11011 11010 11009 11008 11007 11006 11005 11005 11004 11003 11002 11000 10999 10998 10996 10994 10992 10990 10991 10989 10987 10987 10986 10985 10984 10982 10981 10980 10980 10980 10979 10979 10978 10978
11000 11002 11005 11006 11008 11010 11010 11011 11012 11013 11012 11012 11012 11011 11010 11009 11008 11007 11007 11006 11005 11003 11001 10999 10998 10996 10994 10991 10989 10989 10988 10986 10984 10984 10983 10981 10980 10979 10978 10978 10977 10976 10976 10976 10976
10996 10999 11001 11004 11005 11007 11009 11010 11011 11012 11012 11012 11012 11011 11011 11010 11009 11008 11009 11008 11006 11004 11002 11000 10998 10996 10993 10990 10987 10985 10984 10984 10982 10980 10980 10979 10978 10977 10977 10976 10975 10974 10973 10972 10971
10990 10994 10997 11000 11002 11004 11006 11008 11009 11011 11012 11012 11012 11011 11011 11010 11009 11009 11008 11008 11007 11005 11004 11001 10998 10995 10993 10990 10988 10985 10982 10980 10979 10978 10977 10977 10975 10974 10974 10974 10973 10972 10971 10970 10969
10984 10988 10991 10995 10998 11001 11003 11004 11006 11008 11010 11010 11011 11011 11011 11010 11009 11009 11009 11008 11007 11006 11004 11002 10999 10996 10994 10991 10987 10985 10982 10978 10976 10975 10974 10973 10974 10972 10971 10971 10971 10970 10969 10968 10967
10975 10980 10985 10989 10993 10996 10999 11001 11003 11005 11006 11008 11009 11009 11009 11010 11009 11009 11009 11008 11007 11007 11005 11003 11000 10997 10995 10991 10987 10984 10980 10976 10975 10973 10971 10970 10970 10971 10970 10968 10969 10968 10967 10966 10965
10966 10972 10977 10982 10986 10990 10993 10996 10998 11000 11002 11004 11006 11007 11007 11008 11008 11008 11007 11007 11006 11006 11005 11002 11000 10996 10993 10990 10986 10983 10979 10975 10974 10973 10971 10968 10968 10968 10969 10968 10966 10965 10964 10963 10962
10956 10962 10968 10974 10978 10982 10987 10990 10993 10995 10998 11000 11002 11004 11005 11006 11006 11006 11006 11005 11005 11005 11003 11001 10999 10997 10994 10991 10988 10984 10980 10976 10973 10971 10969 10967 10966 10965 10965 10966 10965 10963 10962 10961 10960
10945 10951 10957 10964 10969 10974 10978 10983 10986 10989 10992 10996 10998 11000 11002 11003 11003 11004 11004 11003 11003 11002 11002 11000 10999 10996 10994 10991 10988 10984 10981 10979 10975 10971 10969 10967 10965 10963 10962 10961 10962 10962 10961 10960 10959
10932 10939 10945 10953 10959 10964 10970 10974 10978 10983 10986 10990 10993 10995 10998 10998 11000 11001 11001 11000 11000 11000 11000 10998 10997 10995 10994 10992 10989 10985 10981 10978 10976 10973 10970 10968 10966 10963 10962 10960 10958 10957 10957 10958 10957
10919 10926 10933 10940 10947 10954 10960 10965 10970 10975 10978 10982 10986 10989 10991 10994 10995 10997 10998 10998 10997 10997 10998 10997 10995 10995 10993 10991 10988 10985 10981 10976 10973 10971 10970 10967 10965 10963 10961 10960 10958 10956 10955 10954 10954
10904 10912 10920 10927 10935 10942 10948 10955 10960 10966 10970 10973 10977 10982 10985 10988 10990 10992 10993 10994 10994 10994 10994 10994 10993 10992 10991 10989 10987 10984 10981 10977 10973 10970 10968 10966 10964 10962 10960 10959 10957 10956 10954 10953 10952
10888 10897 10905 10913 10921 10928 10935 10943 10950 10956 10960 10965 10969 10974 10978 10982 10984 10986 10988 10989 10990 10990 10990 10990 10989 10990 10988 10986 10984 10982 10979 10976 10973 10970 10967 10965 10963 10962 10960 10958 10956 10954 10954 10952 10951
10870 10880 10890 10898 10906 10914 10922 10930 10938 10942 10949 10955 10961 10965 10970 10973 10976 10979 10981 10982 10984 10985 10986 10986 10986 10986 10986 10983 10982 10980 10978 10974 10970 10967 10964 10962 10961 10959 10957 10956 10953 10951 10950 10950 10950
10851 10861 10872 10881 10892 10898 10907 10917 10924 10929 10939 10945 10951 10956 10960 10963 10967 10970 10974 10976 10977 10979 10980 10980 10981 10980 10981 10979 10979 10977 10976 10973 10969 10965 10961 10957 10956 10953 10953 10952 10951 10949 10947 10946 10945
10832 10841 10853 10863 10875 10883 10892 10901 10908 10920 10928 10934 10939 10943 10947 10953 10957 10962 10965 10967 10969 10971 10973 10973 10974 10974 10975 10974 10974 10973 10972 10969 10967 10964 10960 10956 10952 10949 10946 10945 10945 10944 10942 10941 10941
10811 10821 10834 10844 10854 10865 10876 10885 10899 10907 10911 10922 10927 10930 10938 10942 10948 10952 10955 10958 10958 10962 10966 10966 10968 10968 10968 10969 10969 10968 10967 10965 10964 10960 10959 10955 10953 10949 10943 10940 10939 10938 10937 10937 10936
10788 10799 10813 10824 10834 10846 10860 10875 10889 10887 10897 10907 10912 10919 10925 10932 10937 10940 10944 10946 10948 10954 10957 10957 10961 10961 10962 10963 10962 10962 10961 10959 10959 10956 10954 10952 10949 10947 10944 10940 10937 10934 10932 10930 10930
10766 10777 10792 10803 10813 10826 10845 10862 10867 10871 10881 10888 10897 10905 10912 10919 10923 10927 10932 10935 10939 10943 10948 10949 10951 10952 10954 10956 10955 10955 10955 10954 10954 10951 10950 10948 10946 10943 10939 10936 10934 10931 10928 10924 10921
10742 10755 10766 10780 10791 10809 10835 10843 10845 10853 10864 10873 10882 10892 10898 10907 10911 10915 10919 10923 10929 10933 10938 10939 10939 10942 10945 10947 10948 10948 10947 10947 10948 10945 10943 10941 10939 10936 10933 10930 10927 10923 10920 10918 10916
10718 10731 10742 10756 10772 10793 10812 10822 10824 10833 10846 10856 10866 10876 10883 10893 10896 10902 10907 10909 10916 10920 10925 10926 10929 10932 10934 10935 10937 10939 10940 10940 10939 10939 10936 10934 10930 10929 10926 10923 10919 10916 10914 10910 10907
10696 10708 10716 10733 10754 10771 10785 10798 10801 10814 10827 10839 10848 10860 10869 10876 10883 10888 10891 10899 10902 10907 10911 10914 10919 10920 10923 10923 10923 10929 10929 10930 10930 10930 10927 10926 10923 10921 10918 10915 10910 10907 10904 10900 10897
10679 10686 10697 10711 10734 10747 10761 10772 10786 10794 10809 10823 10832 10845 10852 10859 10867 10871 10876 10883 10888 10892 10897 10901 10906 10909 10910 10909 10913 10918 10919 10919 10919 10919 10917 10917 10912 10913 10906 10901 10899 10896 10891 10888 10885
10663 10669 10677 10692 10707 10724 10741 10752 10765 10777 10789 10804 10814 10824 10834 10841 10848 10854 10860 10866 10871 10877 10882 10888 10893 10895 10895 10898 10900 10905 10906 10908 10908 10907 10907 10906 10905 10902 10897 10892 10889 10887 10882 10878 10873
10645 10651 10659 10673 10683 10696 10712 10728 10741 10753 10770 10782 10795 10801 10814 10825 10830 10837 10843 10847 10853 10858 10865 10873 10879 10881 10884 10885 10886 10891 10895 10895 10893 10893 10894 10895 10892 10889 10885 10881 10877 10873 10870 10866 10863
10623 10633 10641 10652 10663 10674 10689 10704 10718 10736 10745 10762 10775 10785 10793 10800 10818 10822 10827 10830 10839 10840 10848 10856 10864 10867 10869 10874 10874 10879 10880 10880 10880 10881 10880 10880 10877 10878 10874 10870 10864 10864 10859 10855 10853